Regional Weather Roundup
Issued by NWS Newport/Morehead, NC

Current Version | Previous Version | Text Only | Print | Product List | Glossary On
Versions: 1 2 3 4 5 6 7 8 9 10 11 12 13 14 15 16 17 18 19 20 21 22 23 24 25 26 27 28 29 30 31 32 33 34 35 36 37 38 39 40 41 42 43 44 45 46 47 48 49 50
000
ASUS42 KMHX 301610
RWRMHX
WEATHER ROUNDUP FOR EASTERN NORTH CAROLINA
NATIONAL WEATHER SERVICE NEWPORT/MOREHEAD CITY NC
1200 PM EDT WED JUL 30 2014

NOTE: "FAIR" INDICATES FEW OR NO CLOUDS BELOW 12,000 FEET
WITH NO SIGNIFICANT WEATHER AND/OR OBSTRUCTIONS TO VISIBILITY

NCZ015>017-031-032-045>047-102-103-301700-
NORTH COAST

CITY           SKY/WX    TMP DP  RH WIND       PRES   REMARKS
EDENTON        MOSUNNY   77  62  59 N7        30.09S
ELIZABETH CITY MOSUNNY   78  60  53 CALM      30.09S
KITTY HAWK     SUNNY     78  59  50 NE6       30.08S
MANTEO         NOT AVBL

$$

NCZ045>047-081-094-103-104-301700-
CENTRAL COAST

CITY           SKY/WX    TMP DP  RH WIND       PRES   REMARKS
FRISCO         FAIR      82  61  48 NE10      30.07S
SWANQUARTER      N/A     81 N/A N/A NE3G12    30.03S

$$

NCZ095-097-098-100-101-301700-
SOUTHERN COAST

CITY           SKY/WX    TMP DP  RH WIND       PRES   REMARKS
BEAUFORT       FAIR      82  64  54 NE10      30.06S
CEDAR ISLAND     N/A     81 N/A N/A E8G16     30.12S
JACKSONVILLE   FAIR      83  64  52 E9        30.06S
NEWPORT        NOT AVBL
PINEY ISLAND   FAIR      81  65  58 NE13      30.07R
WILMINGTON     FAIR      83  66  56 E9        30.05S


$$

NCZ011>013-027>030-043-044-078>080-089-090>093-098-301700-
COASTAL PLAIN

CITY           SKY/WX    TMP DP  RH WIND       PRES   REMARKS
AHOSKIE        MOSUNNY   73  56  56 E3        30.10S
CLINTON        FAIR      81  67  62 NE6       30.07F
ELIZABETHTOWN  FAIR      81  66  60 CALM      30.06S
GOLDSBORO      FAIR      79  68  69 E6        30.06S
GREENVILLE     SUNNY     79  63  57 E3        30.10S
HAVELOCK       FAIR      81  59  47 NE15      30.08R
KENANSVILLE    FAIR      80  61  52 E3        30.08S
KINSTON        FAIR      81  63  54 NE5       30.09R
NEW BERN       FAIR      84  61  45 E8        30.08S
RICHLANDS      FAIR      82  61  47 NE9       30.07S
ROANOKE RAPIDS NOT AVBL
ROCKY MOUNT    MOSUNNY   78  60  53 NE7       30.10S
WASHINGTON     SUNNY     78  64  62 NE7       30.08S
WHITEVILLE     NOT AVBL

$$

AMZ130-135-150-152-154-156-158-170-250-252-270-ANZ085-086-088-633-658-670-301700-
MARINE OBSERVATIONS

STATION/POSITION TIME  TEMP    WIND        PRES    WAVE   SWELL
                       AIR SEA DIR/SP/G            HT/PER HT/PER
                 (UTC) (F)     (DEG/KT/KT) (MB)    (FT/S) (FT/S)
CHESAPEAKE LIGHT NOT AVBL
BUOY 44014       1600   74 78  360/ 10/ 12 1018.2    2/ 8   2/ 8
DUCK             1600   74 76  350/ 11/ 12 1018.1
2E DUCK          1600                        N/A     2/ 8
OREGON INLET     1600   76 77   30/ 10/ 11 1018.6
BUOY 44095       1600      78                N/A     3/ 8
20E OREGON INLET NOT AVBL
HATTERAS CG      1600   77 79   40/ 11/ 14 1018.6
DIAMOND BUOY     1600          VRB 14/ 17  1017.3    4/ 7   2/ 9
CAPE LOOKOUT     1500   78      50/ 15/ 17 1017.8
BEAUFORT LAB     1600   79 81   80/ 11/ 14 1017.3
30 SE NEW RIVER  1600   79 81   50/ 16/ 19 1017.6    3/ 9   2/ 9
5 SE WRIGHTSVILL 1500   76 81   70/ 10/ 14   N/A
BUOY 41002       1548   78 80  190/ 12/ 14 1015.7    5/ 7   3/ 7
BUOY 41004       1600   82 84   60/ 12/ 14 1015.7    2/ 9   2/ 9

$$



USA.gov is the U.S. government's official web portal to all federal, state and local government web resources and services.